Waarnemingen

Advertentie
Mijn weer
Jerez De La Frontera aeropuert, Spanje (8451): temperatuur & dauwpunt: 15.02.2018 14:00:00 - 21.02.2018 14:00:00 (CET)Jerez De La Frontera aeropuert, Spanje (8451): windsnelheid: 15.02.2018 14:00:00 - 21.02.2018 14:00:00 (CET)Jerez De La Frontera aeropuert, Spanje (8451): windrichting: 15.02.2018 14:00:00 - 21.02.2018 14:00:00 (CET)Jerez De La Frontera aeropuert, Spanje (8451): luchtdruk: 15.02.2018 14:00:00 - 21.02.2018 14:00:00 (CET)Jerez De La Frontera aeropuert, Spanje (8451): zicht: 15.02.2018 14:00:00 - 21.02.2018 14:00:00 (CET)
Datum & Tijd tt [°C] td [°C] ff [km/u] ff [kn] dd ppp [hPa] vv [km]
21.02.2018 14:00:00 - - - - - - -
21.02.2018 13:00:00 18,2 1,6 24 13 NNO 1009,3 10
21.02.2018 12:00:00 17,1 1,9 28 15 NNO 1009,9 10
21.02.2018 11:00:00 14,8 5,8 21 11 N 1010,1 10
21.02.2018 10:00:00 10,7 5,2 22 12 N 1010,3 35
21.02.2018 09:00:00 7,5 4,1 13 7 NNW 1010,2 10
21.02.2018 08:00:00 6,3 3,5 16 9 N 1009,9 10
21.02.2018 07:00:00 7,3 3,7 16 9 NNW 1009,8 10
21.02.2018 06:00:00 7,0 4,3 13 7 NNW 1009,9 10
21.02.2018 05:00:00 6,6 4,1 11 6 NNW 1010,6 10
21.02.2018 04:00:00 5,4 3,7 4 2 NNO 1011,6 10
21.02.2018 03:00:00 5,5 3,1 4 2 - 1012,2 10
21.02.2018 02:00:00 7,5 4,6 2 1 ZZW 1012,8 10
21.02.2018 01:00:00 8,8 5,5 5 3 NW 1013,2 10
21.02.2018 00:00:00 10,3 6,3 2 1 - 1013,8 10
20.02.2018 23:00:00 11,1 6,2 8 4 WNW 1014,0 10
20.02.2018 22:00:00 11,1 4,5 11 6 NW 1014,2 10
20.02.2018 21:00:00 11,1 4,8 11 6 NNO 1013,9 10
20.02.2018 20:00:00 13,2 5,7 13 7 N 1014,0 10
20.02.2018 19:00:00 17,9 6,1 16 9 NNO 1013,8 50
20.02.2018 18:00:00 20,3 6,1 22 12 N 1013,9 10
20.02.2018 17:00:00 20,9 6,4 24 13 NNO 1014,1 10
20.02.2018 16:00:00 21,1 5,6 29 16 N 1014,6 60
20.02.2018 15:00:00 21,3 7,0 28 15 N 1015,1 10
20.02.2018 14:00:00 20,6 6,9 24 13 N 1015,9 10
20.02.2018 13:00:00 19,5 7,5 21 11 NNO 1016,8 60
20.02.2018 12:00:00 16,9 7,6 4 2 N 1017,5 10
20.02.2018 11:00:00 13,3 6,2 2 1 O 1017,9 10
20.02.2018 10:00:00 8,8 5,2 8 4 N 1018,2 60
20.02.2018 09:00:00 4,4 2,4 0 0 N 1018,0 10
20.02.2018 08:00:00 2,4 0,6 2 1 NO 1017,6 10
20.02.2018 07:00:00 3,0 1,7 2 1 O 1017,2 12
20.02.2018 06:00:00 2,8 1,0 8 4 NNO 1017,2 10
20.02.2018 05:00:00 3,1 1,0 4 2 NNO 1017,2 10
20.02.2018 04:00:00 3,3 0,9 8 4 NO 1017,3 10
20.02.2018 03:00:00 3,9 0,9 5 3 NO 1017,5 10
20.02.2018 02:00:00 4,6 1,4 4 2 O 1017,7 10
20.02.2018 01:00:00 5,8 1,7 0 0 N 1017,8 10
20.02.2018 00:00:00 6,3 2,6 5 3 W 1017,9 10
19.02.2018 23:00:00 7,6 2,4 11 6 ZO 1018,0 10
19.02.2018 22:00:00 8,8 2,4 4 2 - 1017,6 10
19.02.2018 21:00:00 9,8 2,6 2 1 NO 1017,1 10
19.02.2018 20:00:00 12,1 3,1 8 4 NNO 1017,0 10
19.02.2018 19:00:00 15,5 3,2 9 5 NNO 1016,7 30
19.02.2018 18:00:00 18,0 3,0 18 10 N 1016,2 10
19.02.2018 17:00:00 18,8 4,5 18 10 N 1016,4 10
19.02.2018 16:00:00 18,6 6,7 15 8 NNO 1016,6 25
19.02.2018 15:00:00 18,1 10,3 9 5 N 1016,9 10
19.02.2018 14:00:00 17,1 10,4 5 3 - 1017,8 10
19.02.2018 13:00:00 16,3 11,1 8 4 N 1018,5 25
19.02.2018 12:00:00 14,7 10,7 9 5 N 1019,0 10
19.02.2018 11:00:00 13,8 10,3 0 0 N 1018,7 8
19.02.2018 10:00:00 8,9 8,3 8 4 N 1018,7 5
19.02.2018 09:00:00 5,3 4,9 0 0 N 1018,4 4,5
19.02.2018 08:00:00 4,4 3,8 0 0 N 1018,4 3,5
19.02.2018 07:00:00 4,7 4,3 8 4 N 1018,0 9
19.02.2018 06:00:00 5,2 4,3 4 2 NO 1017,9 9
19.02.2018 05:00:00 6,1 5,1 0 0 N 1017,9 10
19.02.2018 04:00:00 6,4 5,3 2 1 NNW 1018,1 10
19.02.2018 03:00:00 8,5 7,1 4 2 Z 1018,4 10
19.02.2018 02:00:00 8,7 7,5 4 2 NW 1018,9 10
19.02.2018 01:00:00 7,5 6,4 9 5 N 1019,5 10
19.02.2018 00:00:00 8,2 5,8 4 2 ONO 1019,3 10
18.02.2018 23:00:00 9,9 7,7 5 3 NNO 1019,5 10
18.02.2018 22:00:00 10,8 8,7 4 2 - 1019,4 10
18.02.2018 21:00:00 11,4 8,6 5 3 ZW 1019,3 10
18.02.2018 20:00:00 13,3 9,7 11 6 W 1019,2 10
18.02.2018 19:00:00 15,7 10,0 8 4 NW 1018,9 10
18.02.2018 18:00:00 17,5 10,9 11 6 NW 1018,6 10
18.02.2018 17:00:00 18,5 11,4 11 6 WNW 1018,6 9
18.02.2018 16:00:00 18,7 11,8 9 5 WNW 1018,9 9
18.02.2018 15:00:00 18,2 11,6 5 3 WZW 1019,4 9
18.02.2018 14:00:00 17,5 11,2 8 4 ZW 1020,4 9
18.02.2018 13:00:00 15,8 11,1 2 1 NNO 1021,1 8
18.02.2018 12:00:00 12,5 9,7 2 1 - 1021,5 8
18.02.2018 11:00:00 11,4 9,7 5 3 N 1021,8 7
18.02.2018 10:00:00 9,1 7,7 0 0 N 1021,8 6
18.02.2018 09:00:00 7,4 6,2 4 2 NO 1021,6 6
18.02.2018 08:00:00 5,9 5,3 4 2 - 1021,3 6
18.02.2018 07:00:00 4,4 3,7 4 2 O 1021,2 10
18.02.2018 06:00:00 4,9 4,3 4 2 OZO 1021,2 -
18.02.2018 05:00:00 5,1 4,4 0 0 N 1021,1 10
18.02.2018 04:00:00 5,2 4,2 2 1 O 1021,6 10
18.02.2018 03:00:00 5,7 4,8 5 3 ONO 1022,0 10
18.02.2018 02:00:00 5,9 5,0 5 3 ONO 1022,4 10
18.02.2018 01:00:00 6,4 5,1 5 3 ONO 1022,8 10
18.02.2018 00:00:00 6,9 5,3 5 3 ONO 1022,9 10
17.02.2018 23:00:00 7,8 5,4 5 3 ONO 1023,0 10
17.02.2018 22:00:00 9,1 6,1 0 0 N 1023,2 25
17.02.2018 21:00:00 11,1 8,0 5 3 W 1023,0 10
17.02.2018 20:00:00 12,7 8,7 9 5 WZW 1022,9 10
17.02.2018 19:00:00 14,1 8,7 13 7 WZW 1022,7 10
17.02.2018 18:00:00 16,2 9,4 11 6 W 1022,4 10
17.02.2018 17:00:00 17,3 9,6 11 6 W 1022,4 10
17.02.2018 16:00:00 18,1 9,4 11 6 WZW 1022,4 40
17.02.2018 15:00:00 17,7 9,7 11 6 W 1022,9 10
17.02.2018 14:00:00 16,9 10,0 13 7 WNW 1023,6 10
17.02.2018 13:00:00 16,3 9,9 9 5 WZW 1024,4 10
17.02.2018 12:00:00 15,7 10,2 11 6 WZW 1024,8 10
17.02.2018 11:00:00 14,2 11,9 5 3 ZZW 1024,9 6
17.02.2018 10:00:00 11,4 10,6 4 2 Z 1024,8 1,5
17.02.2018 09:00:00 8,0 8,0 2 1 - 1024,5 1,5
17.02.2018 08:00:00 8,2 8,2 0 0 N 1024,3 0,1
17.02.2018 07:00:00 9,2 9,2 5 3 Z 1024,1 0,1
17.02.2018 06:00:00 9,7 9,7 2 1 - 1023,7 0,8
17.02.2018 05:00:00 9,2 9,2 0 0 N 1023,5 0,2
17.02.2018 04:00:00 9,5 9,5 4 2 ZW 1023,7 -
17.02.2018 03:00:00 9,6 9,6 0 0 N 1023,7 -
17.02.2018 02:00:00 9,1 9,0 4 2 ONO 1024,0 0,1
17.02.2018 01:00:00 9,0 8,4 5 3 O 1024,4 3,2
17.02.2018 00:00:00 9,4 8,0 8 4 O 1024,4 10
16.02.2018 23:00:00 8,0 6,5 0 0 N 1024,2 7
16.02.2018 22:00:00 9,3 6,8 5 3 OZO 1024,0 25
16.02.2018 21:00:00 10,8 8,0 0 0 N 1023,5 10
16.02.2018 20:00:00 13,4 9,8 8 4 ZW 1023,1 10
16.02.2018 19:00:00 16,5 10,3 9 5 WZW 1022,5 40
16.02.2018 18:00:00 18,9 11,0 16 9 ZW 1021,9 10
16.02.2018 17:00:00 22,0 10,8 9 5 WZW 1021,7 10
16.02.2018 16:00:00 21,9 11,2 8 4 W 1021,7 40
16.02.2018 15:00:00 21,0 11,1 8 4 NW 1022,1 10
16.02.2018 14:00:00 20,1 10,8 5 3 WNW 1023,1 10
16.02.2018 13:00:00 18,2 10,6 5 3 WZW 1024,1 40
16.02.2018 12:00:00 16,0 9,9 4 2 W 1024,6 10
16.02.2018 11:00:00 12,9 9,2 4 2 N 1024,6 10
16.02.2018 10:00:00 8,3 6,2 0 0 N 1024,5 10
16.02.2018 09:00:00 5,9 4,9 0 0 N 1024,3 10
16.02.2018 08:00:00 3,4 2,3 0 0 N 1023,8 10
16.02.2018 07:00:00 3,6 2,8 0 0 N 1023,6 10
16.02.2018 06:00:00 3,8 2,8 5 3 N 1023,5 10
16.02.2018 05:00:00 4,4 3,4 0 0 N 1023,6 10
16.02.2018 04:00:00 4,4 3,2 5 3 N 1024,0 10
16.02.2018 03:00:00 4,7 3,5 8 4 NNO 1024,2 10
16.02.2018 02:00:00 6,0 3,8 0 0 N 1024,6 10
16.02.2018 01:00:00 7,4 5,2 8 4 ONO 1024,8 10
16.02.2018 00:00:00 8,9 6,4 9 5 N 1025,0 10
15.02.2018 23:00:00 9,8 6,7 4 2 - 1025,2 10
15.02.2018 22:00:00 11,9 8,0 15 8 WNW 1024,8 10
15.02.2018 21:00:00 12,3 7,6 9 5 WNW 1024,3 10
15.02.2018 20:00:00 13,0 8,2 9 5 NNW 1024,2 10
15.02.2018 19:00:00 16,4 9,0 13 7 N 1023,9 30
15.02.2018 18:00:00 19,9 9,2 18 10 N 1023,9 10
15.02.2018 17:00:00 20,7 9,4 16 9 N 1024,0 10
15.02.2018 16:00:00 21,0 9,7 21 11 N 1024,0 30
15.02.2018 15:00:00 20,7 9,7 22 12 N 1024,1 10
15.02.2018 14:00:00 20,2 9,6 21 11 N 1024,7 10

tt = temperatuur
td = dauwpunt
ff = windsnelheid
dd = windrichting
ppp = luchtdruk
vv = zicht

Weerstations in de omgeving